This is the latest recevied weather packets stored in our database for station/object KI8L. If no packets are shown the sender has not sent any weather packets the latest 1 day(s).
| Time | Temp. | Humidity | Pressure | Rain* | Wind** | Luminosity | Snow |
|---|---|---|---|---|---|---|---|
| 1778000006 | 17.78° C | 75% | 1010.6 hPa | 0 mm | 0.45 m/s, 208° | 71 W/m² | - |
| 1777999702 | 18.33° C | 74% | 1010.6 hPa | 0 mm | 2.24 m/s, 251° | 71 W/m² | - |
| 1777999399 | 18.33° C | 74% | 1010.4 hPa | 0 mm | 0.89 m/s, 256° | 63 W/m² | - |
| 1777999097 | 18.33° C | 72% | 1010.4 hPa | 0 mm | 3.58 m/s, 258° | 57 W/m² | - |
| 1777998796 | 18.89° C | 71% | 1010.3 hPa | 0 mm | 1.79 m/s, 238° | 59 W/m² | - |
| 1777998494 | 18.89° C | 70% | 1010.3 hPa | 0 mm | 1.34 m/s, 235° | 73 W/m² | - |
| 1777998190 | 18.89° C | 69% | 1010.3 hPa | 0 mm | 2.24 m/s, 243° | 81 W/m² | - |
| 1777997887 | 18.89° C | 68% | 1010.5 hPa | 0 mm | 4.02 m/s, 242° | 132 W/m² | - |
| 1777997584 | 19.44° C | 70% | 1010.4 hPa | 0 mm | 2.24 m/s, 233° | 107 W/m² | - |
| 1777997281 | 19.44° C | 67% | 1010.3 hPa | 0 mm | 3.58 m/s, 248° | 156 W/m² | - |
| 1777996979 | 19.44° C | 67% | 1010.6 hPa | 0 mm | 3.13 m/s, 257° | 184 W/m² | - |
| 1777996676 | 20° C | 67% | 1010.3 hPa | 0 mm | 1.79 m/s, 232° | 167 W/m² | - |
| 1777996371 | 20.56° C | 66% | 1010.2 hPa | 0 mm | 1.79 m/s, 246° | 209 W/m² | - |
| 1777996068 | 20.56° C | 66% | 1010.2 hPa | 0 mm | 2.24 m/s, 220° | 214 W/m² | - |
| 1777995765 | 20.56° C | 67% | 1009.9 hPa | 0 mm | 2.68 m/s, 210° | 638 W/m² | - |
| 1777995461 | 20.56° C | 65% | 1009.8 hPa | 0 mm | 1.79 m/s, 231° | 246 W/m² | - |
| 1777995158 | 20.56° C | 64% | 1009.8 hPa | 0 mm | 1.79 m/s, 276° | 569 W/m² | - |
| 1777994856 | 20.56° C | 67% | 1009.5 hPa | 0 mm | 2.24 m/s, 225° | 532 W/m² | - |
| 1777994552 | 20.56° C | 68% | 1009.5 hPa | 0 mm | 4.02 m/s, 225° | 492 W/m² | - |
| 1777994251 | 20° C | 65% | 1009.4 hPa | 0 mm | 4.47 m/s, 194° | 503 W/m² | - |
| 1777993949 | 20° C | 69% | 1008.9 hPa | 0 mm | 3.58 m/s, 181° | 495 W/m² | - |
| 1777993646 | 20° C | 69% | 1009.2 hPa | 0 mm | 2.24 m/s, 190° | 505 W/m² | - |
| 1777993344 | 20° C | 69% | 1009.2 hPa | 0 mm | 1.79 m/s, 181° | 497 W/m² | - |
| 1777993046 | 19.44° C | 69% | 1009.4 hPa | 0 mm | 1.34 m/s, 174° | 432 W/m² | - |
| 1777992743 | 19.44° C | 69% | 1009.2 hPa | 0 mm | 2.24 m/s, 248° | 437 W/m² | - |
* Rain latest hour (hover to see other rain measurements)
** Current wind speed in m/s (hover to see current wind gust speed)